Location: Doverdale
(52.2833°N, 2.2000°W)
Time: 03:22:47
(UTC+00:00)

SL-08 R/B - Pass Details

Date: 29 October 2020
Orbit: 946 x 994 km, 83.0° (Epoch: 24 November)

Event Time Altitude Azimuth Distance (km) Brightness Sun altitude
Rises 17:58:52 0° 350° (N) 3,667 7.6 -11.8°
Reaches altitude 10° 18:01:24 10° 352° (N) 2,709 6.9 -12.2°
Maximum altitude 18:07:36 77° 79° (ENE) 984 4.4 -13.2°
Drops below altitude 10° 18:13:42 10° 165° (SSE) 2,666 6.7 -14.1°
Sets 18:16:10 0° 167° (SSE) 3,605 7.4 -14.5°
